Regional Weather Roundup
Issued by NWS Little Rock, AR

Home | Current Version | Previous Version | Graphics & Text | Print | Product List | Glossary On
Versions: 1 2 3 4 5 6 7 8 9 10 11 12 13 14 15 16 17 18 19 20 21 22 23 24 25 26 27 28 29 30 31 32 33 34 35 36 37 38 39 40 41 42 43 44 45 46 47 48 49 50
000
ASUS44 KLZK 302305
RWRLZK

WEATHER ROUNDUP FOR ARKANSAS
NATIONAL WEATHER SERVICE LITTLE ROCK AR
500 PM CST FRI JAN 30 2015

NOTE: "FAIR" INDICATES FEW OR NO CLOUDS BELOW 12,000 FEET WITH NO
SIGNIFICANT WEATHER AND/OR OBSTRUCTIONS TO VISIBILITY.

ARZ001-003-010-029-310000-
NORTHWEST ARKANSAS

CITY           SKY/WX    TMP DP  RH WIND       PRES   REMARKS
FAYETTEVILLE   MOCLDY    47  23  38 CALM      30.39F
FORT SMITH     MOCLDY    49  22  34 NE8       30.41F
HARRISON       CLEAR     43  18  36 S5        30.41S
BENTONVILLE    MOCLDY    46  16  29 SE3       30.41F
ROGERS         MOCLDY    45  21  38 SE3       30.40F
SILOAM SPGS    CLOUDY    46  18  31 CALM      30.42S
HIGHFILL       MOCLDY    47  18  31 E3        30.39F
SPRINGDALE     MOCLDY    46  19  34 NE5       30.42S
$$

ARZ004-005-016-310000-
NORTH CENTRAL ARKANSAS

CITY           SKY/WX    TMP DP  RH WIND       PRES   REMARKS
BATESVILLE     PTCLDY    46  21  36 E6        30.43F
FLIPPIN        CLEAR     46  14  27 CALM      30.43S
MTN HOME       CLEAR     46  16  30 CALM      30.42S
$$

ARZ040-041-310000-
WEST CENTRAL ARKANSAS

CITY           SKY/WX    TMP DP  RH WIND       PRES   REMARKS
MENA           PTCLDY    54  25  32 E5        30.38S
MOUNT IDA      CLEAR     51  24  34 CALM      30.38R
$$

ARZ009-017-025-026-028-310000-
NORTHEAST ARKANSAS

CITY           SKY/WX    TMP DP  RH WIND       PRES   REMARKS
CORNING        FAIR      41  27  56 E6        30.48S
JONESBORO      MOCLDY    42  29  59 NE10      30.45F
NEWPORT        CLEAR     43  30  60 NE8       30.46F
WALNUT RIDGE   MOCLDY    43  25  49 NE7       30.45F
BLYTHEVILLE    PTCLDY    44  27  51 N9        30.46S
$$

ARZ022-023-033-042-044-310000-
CENTRAL ARKANSAS

CITY           SKY/WX    TMP DP  RH WIND       PRES   REMARKS
LITTLE ROCK    MOCLDY    50  23  34 E6        30.43F
N LITTLE ROCK  MOCLDY    50  27  40 E5        30.43F
JACKSONVILLE   PTCLDY    50  25  36 E3        30.43S
SEARCY         PTCLDY    46  25  43 E7        30.45F
HOT SPRINGS    CLEAR     51  25  36 E6        30.41S
RUSSELLVILLE   PTCLDY    50  25  37 SE3       30.42S
CLINTON        FAIR      48  23  37 SE3       30.44S
$$

ARZ036-310000-
EAST ARKANSAS

CITY           SKY/WX    TMP DP  RH WIND       PRES   REMARKS
WEST MEMPHIS   CLEAR     44  28  53 N7        30.43S
$$

ARZ050-053-066-070-073-310000-
SOUTHWEST ARKANSAS

CITY           SKY/WX    TMP DP  RH WIND       PRES   REMARKS
ARKADELPHIA    FAIR      52  29  41 E6        30.42S
CAMDEN         PTCLDY    54  25  32 MISG      30.41S
TEXARKANA      PTCLDY    51  29  42 E5        30.38F
EL DORADO      CLEAR     51  29  42 NE7       30.39F
DE QUEEN       PTCLDY    55  26  32 E7        30.37F
$$

ARZ056-057-069-310000-
SOUTHEAST ARKANSAS

CITY           SKY/WX    TMP DP  RH WIND       PRES   REMARKS
PINE BLUFF     PTCLDY    47  28  47 NE7       30.43F
STUTTGART      CLEAR     46  25  42 N8        30.44S
MONTICELLO     PTCLDY    48  30  49 NE9       30.42S

$$





USA.gov is the U.S. government's official web portal to all federal, state and local government web resources and services.